Blacksburg, VA

7:47 PM EDT on August 29, 2016 (GMT -0400)
Virginia Tech

Weather History for KBCB - March, 2014

Change the Weather History Date:

Wednesday, March 26, 2014

  Actual Average Record
Temperature  
Mean Temperature 27 °F 44 °F  
Max Temperature 35 °F 57 °F 79 °F (1954)
Min Temperature 19 °F 32 °F 18 °F (1960)
Degree Days  
Heating Degree Days 38 20  
Month to date heating degree days 682 629  
Since 1 July heating degree days 4863 4677  
Cooling Degree Days 0 0  
Month to date cooling degree days 0 0  
Year to date cooling degree days 0 0  
Moisture  
Dew Point 14 °F    
Average Humidity 69    
Maximum Humidity 100    
Minimum Humidity 38    
Precipitation  
Precipitation 0.01 in 0.13 in 1.30 in (1978)
Month to date precipitation 1.95 2.99  
Year to date precipitation 7.58 8.88  
Snow  
Snow 0.20 in - - ()
Month to date snowfall 6.7  
Since 1 July snowfall 33.8  
Snow Depth 1.00 in    
Sea Level Pressure  
Sea Level Pressure 30.12 in    
Wind  
Wind Speed 10 mph (WNW)    
Max Wind Speed 20 mph    
Max Gust Speed 30 mph    
Visibility 10 miles    
Events Snow    
T = Trace of Precipitation, MM = Missing Value Source: NWS Daily Summary

Daily Weather History Graph

Daily Weather History Graph

Search for Another Location

Airport or City:

Trip Planner

Search our weather history database for the weather conditions in past years. The results will help you decide how hot, cold, wet, or windy it might be!

Date:

Astronomy

Mar. 26, 2014 Rise Set
Actual Time 7:16 AM EDT 7:38 PM EDT
Civil Twilight 6:50 AM EDT 8:04 PM EDT
Nautical Twilight 6:19 AM EDT 8:35 PM EDT
Astronomical Twilight 5:48 AM EDT 9:06 PM EDT
Moon 4:17 AM EDT (3/26) 3:20 PM EDT (3/26)
Length of Visible Light 13h 14m
Length of Day
12h 22m
Waning Crescent, 22% of the Moon is Illuminated
Mar 26
Waning Crescent
Mar 30
New
Apr 7
First Quarter
Apr 15
Full
Apr 22
Last Quarter

Hourly Weather History & Observations

Time (EDT) Temp. Windchill Dew Point Humidity Pressure Visibility Wind Dir Wind Speed Gust Speed Precip Events Conditions
12:15 AM 26.6 °F 13.8 °F 19.4 °F 74% 29.96 in 10.0 mi NW 17.3 mph 33.4 mph N/A   Overcast
12:35 AM 26.6 °F 14.3 °F 19.4 °F 74% 29.97 in 10.0 mi NW 16.1 mph 23.0 mph N/A   Overcast
12:55 AM 26.6 °F 14.3 °F 19.4 °F 74% 29.98 in 10.0 mi NW 16.1 mph 29.9 mph N/A   Overcast
1:15 AM 26.6 °F 11.7 °F 17.6 °F 69% 29.98 in 10.0 mi NW 24.2 mph 33.4 mph N/A   Overcast
1:35 AM 24.8 °F 11.1 °F 17.6 °F 74% 29.99 in 10.0 mi NW 18.4 mph 28.8 mph N/A   Scattered Clouds
1:55 AM 24.8 °F 11.9 °F 17.6 °F 74% 30.00 in 10.0 mi WNW 16.1 mph 26.5 mph N/A   Mostly Cloudy
2:15 AM 24.8 °F 10.0 °F 17.6 °F 74% 30.00 in 10.0 mi NW 21.9 mph 28.8 mph N/A   Overcast
2:35 AM 24.8 °F 14.0 °F 15.8 °F 69% 30.01 in 10.0 mi NW 11.5 mph 21.9 mph N/A   Overcast
2:55 AM 24.8 °F 10.7 °F 15.8 °F 69% 30.01 in 10.0 mi NW 19.6 mph 29.9 mph N/A   Overcast
3:15 AM 24.8 °F 11.9 °F 15.8 °F 69% 30.01 in 10.0 mi WNW 16.1 mph 28.8 mph N/A   Overcast
3:35 AM 23.0 °F 13.1 °F 17.6 °F 80% 30.01 in 3.0 mi WNW 9.2 mph 17.3 mph N/A Snow Light Snow
3:55 AM 23.0 °F 13.1 °F 19.4 °F 86% 30.01 in 7.0 mi NW 9.2 mph - N/A Snow Light Snow
4:15 AM 23.0 °F 11.7 °F 17.6 °F 80% 30.01 in 5.0 mi WNW 11.5 mph 16.1 mph N/A Snow Light Snow
4:35 AM 21.2 °F 11.7 °F 21.2 °F 100% 30.01 in 1.5 mi WNW 8.1 mph - N/A Snow Light Snow
4:55 AM 21.2 °F 10.9 °F 21.2 °F 100% 30.01 in 2.5 mi WNW 9.2 mph - N/A Snow Light Snow
5:15 AM 21.2 °F 7.3 °F 17.6 °F 86% 30.02 in 10.0 mi WNW 16.1 mph 24.2 mph N/A   Overcast
5:35 AM 21.2 °F 7.8 °F 15.8 °F 80% 30.03 in 10.0 mi WNW 15.0 mph 26.5 mph N/A   Mostly Cloudy
5:55 AM 21.2 °F 6.0 °F 15.8 °F 80% 30.03 in 10.0 mi WNW 19.6 mph 25.3 mph N/A   Overcast
6:15 AM 21.2 °F 6.8 °F 15.8 °F 80% 30.04 in 10.0 mi WNW 17.3 mph 27.6 mph N/A   Mostly Cloudy
6:35 AM 21.2 °F 7.8 °F 12.2 °F 68% 30.05 in 10.0 mi WNW 15.0 mph 26.5 mph N/A   Scattered Clouds
6:55 AM 21.2 °F 12.6 °F 10.4 °F 63% 30.06 in 10.0 mi West 6.9 mph 17.3 mph N/A   Clear
7:15 AM 21.2 °F 7.8 °F 10.4 °F 63% 30.07 in 10.0 mi WNW 15.0 mph 24.2 mph N/A   Scattered Clouds
7:35 AM 21.2 °F 9.5 °F 10.4 °F 63% 30.08 in 10.0 mi WNW 11.5 mph 23.0 mph N/A   Scattered Clouds
7:55 AM 21.2 °F 8.9 °F 12.2 °F 68% 30.08 in 10.0 mi WNW 12.7 mph 18.4 mph N/A   Mostly Cloudy
8:15 AM 21.2 °F 8.9 °F 12.2 °F 68% 30.10 in 10.0 mi WNW 12.7 mph 21.9 mph N/A   Overcast
8:35 AM 21.2 °F 8.9 °F 12.2 °F 68% 30.11 in 10.0 mi West 12.7 mph 21.9 mph N/A   Scattered Clouds
8:55 AM 21.2 °F 9.5 °F 12.2 °F 68% 30.12 in 10.0 mi West 11.5 mph 26.5 mph N/A   Scattered Clouds
9:15 AM 23.0 °F 10.1 °F 10.4 °F 59% 30.13 in 10.0 mi WNW 15.0 mph 25.3 mph N/A   Mostly Cloudy
9:35 AM 24.8 °F 15.3 °F 12.2 °F 59% 30.15 in 10.0 mi WNW 9.2 mph 17.3 mph N/A   Scattered Clouds
9:55 AM 24.8 °F 14.0 °F 12.2 °F 59% 30.15 in 10.0 mi West 11.5 mph 23.0 mph N/A   Scattered Clouds
10:15 AM 24.8 °F 14.0 °F 12.2 °F 59% 30.16 in 10.0 mi NW 11.5 mph 17.3 mph N/A   Scattered Clouds
10:35 AM 24.8 °F 12.9 °F 12.2 °F 59% 30.17 in 10.0 mi WNW 13.8 mph 20.7 mph N/A   Scattered Clouds
10:55 AM 24.8 °F 11.9 °F 12.2 °F 59% 30.17 in 10.0 mi WNW 16.1 mph 26.5 mph N/A   Scattered Clouds
11:15 AM 26.6 °F 14.7 °F 14.0 °F 59% 30.18 in 10.0 mi NW 15.0 mph 23.0 mph N/A   Scattered Clouds
11:35 AM 26.6 °F 17.5 °F 14.0 °F 59% 30.18 in 10.0 mi West 9.2 mph 16.1 mph N/A   Scattered Clouds
11:55 AM 26.6 °F 17.5 °F 14.0 °F 59% 30.18 in 10.0 mi WNW 9.2 mph 17.3 mph N/A   Scattered Clouds
12:15 PM 28.4 °F 21.2 °F 14.0 °F 55% 30.18 in 10.0 mi WNW 6.9 mph 20.7 mph N/A   Clear
12:35 PM 30.2 °F 22.6 °F 15.8 °F 55% 30.18 in 10.0 mi West 8.1 mph 16.1 mph N/A   Clear
12:55 PM 30.2 °F 21.9 °F 15.8 °F 55% 30.18 in 10.0 mi WNW 9.2 mph 18.4 mph N/A   Clear
1:15 PM 30.2 °F 21.3 °F 12.2 °F 47% 30.19 in 10.0 mi WNW 10.4 mph 20.7 mph N/A   Clear
1:35 PM 30.2 °F 20.2 °F 12.2 °F 47% 30.19 in 10.0 mi WNW 12.7 mph 18.4 mph N/A   Clear
1:55 PM 32.0 °F 22.5 °F 12.2 °F 44% 30.18 in 10.0 mi West 12.7 mph 18.4 mph N/A   Clear
2:15 PM 32.0 °F 24.2 °F 10.4 °F 41% 30.18 in 10.0 mi WNW 9.2 mph 18.4 mph N/A   Clear
2:35 PM 33.8 °F 25.3 °F 12.2 °F 41% 30.18 in 10.0 mi WNW 11.5 mph 21.9 mph N/A   Clear
2:55 PM 33.8 °F 25.8 °F 10.4 °F 38% 30.19 in 10.0 mi WNW 10.4 mph 20.7 mph N/A   Clear
3:15 PM 33.8 °F 25.3 °F 12.2 °F 41% 30.19 in 10.0 mi West 11.5 mph 17.3 mph N/A   Clear
3:35 PM 33.8 °F 25.8 °F 10.4 °F 38% 30.19 in 10.0 mi West 10.4 mph 19.6 mph N/A   Clear
3:55 PM 35.6 °F 25.9 °F 12.2 °F 38% 30.19 in 10.0 mi West 16.1 mph 23.0 mph N/A   Clear
4:35 PM 33.8 °F 23.2 °F 10.4 °F 38% 30.19 in 10.0 mi NW 17.3 mph 24.2 mph N/A   Clear
5:35 PM 35.6 °F 28.0 °F 12.2 °F 38% 30.19 in 10.0 mi West 10.4 mph - N/A   Clear
6:15 PM 35.6 °F 27.5 °F 12.2 °F 38% 30.21 in 10.0 mi WNW 11.5 mph - N/A   Clear
8:15 PM 30.2 °F 24.3 °F 12.2 °F 47% 30.23 in 10.0 mi WNW 5.8 mph - N/A   Clear
8:55 PM 30.2 °F - 12.2 °F 47% 30.24 in 10.0 mi Calm Calm - N/A   Clear
9:55 PM 26.6 °F - 15.8 °F 64% 30.26 in 10.0 mi Calm Calm - N/A   Clear
10:55 PM 26.6 °F - 15.8 °F 64% 30.27 in 10.0 mi Calm Calm - N/A   Clear
11:15 PM 24.8 °F - 15.8 °F 69% 30.27 in 10.0 mi Calm Calm - N/A   Clear
11:35 PM 24.8 °F - 15.8 °F 69% 30.27 in 10.0 mi Calm Calm - N/A   Clear
11:55 PM 23.0 °F - 17.6 °F 80% 30.27 in 10.0 mi Calm Calm - N/A   Clear